This is the latest recevied weather packets stored in our database for station/object OE-11213. If no packets are shown the sender has not sent any weather packets the latest 10 day(s).
| Time | Temp. | Humidity | Pressure | Rain* | Wind** | Luminosity | Snow |
|---|---|---|---|---|---|---|---|
| 1788107730 | 28.33° C | 42% | 1012.2 hPa | 0 mm | - | 167 W/m² | - |
| 1788104503 | 28.33° C | 43% | 1012.1 hPa | 0 mm | - | 312 W/m² | - |
| 1788104130 | 28.89° C | 42% | 1012.2 hPa | 0 mm | - | 341 W/m² | - |
| 1788103530 | 28.89° C | 43% | 1012.2 hPa | 0 mm | - | 370 W/m² | - |
| 1788102703 | 28.89° C | 44% | 1012.2 hPa | 0 mm | - | 399 W/m² | - |
| 1788102330 | 28.89° C | 43% | 1012.3 hPa | 0 mm | - | 428 W/m² | - |
| 1788100903 | 28.89° C | 42% | 1012.5 hPa | 0 mm | - | 471 W/m² | - |
| 1788100530 | 28.89° C | 41% | 1012.5 hPa | 0 mm | - | 500 W/m² | - |
| 1788099930 | 28.89° C | 42% | 1012.6 hPa | 0 mm | - | 522 W/m² | - |
| 1788099103 | 28.89° C | 42% | 1012.6 hPa | 0 mm | - | 544 W/m² | - |
| 1788098730 | 29.44° C | 39% | 1012.9 hPa | 0 mm | - | 573 W/m² | - |
| 1788098130 | 28.89° C | 40% | 1013.1 hPa | 0 mm | - | 595 W/m² | - |
| 1788097303 | 28.89° C | 41% | 1013.1 hPa | 0 mm | - | 609 W/m² | - |
| 1788096930 | 28.33° C | 42% | 1013.2 hPa | 0 mm | - | 616 W/m² | - |
| 1788096329 | 28.33° C | 42% | 1013.3 hPa | 0 mm | - | 638 W/m² | - |
| 1788095503 | 28.33° C | 41% | 1013.4 hPa | 0 mm | - | 667 W/m² | - |
| 1788095130 | 27.78° C | 42% | 1013.5 hPa | 0 mm | - | 682 W/m² | - |
| 1788093330 | 27.78° C | 44% | 1013.9 hPa | 0 mm | - | 725 W/m² | - |
| 1788092730 | 27.78° C | 47% | 1014 hPa | 0 mm | - | 732 W/m² | - |
| 1788091903 | 27.22° C | 48% | 1014.1 hPa | 0 mm | - | 740 W/m² | - |
| 1788091530 | 26.67° C | 48% | 1014.2 hPa | 0 mm | - | 747 W/m² | - |
| 1788090103 | 26.67° C | 50% | 1014.5 hPa | 0 mm | - | 754 W/m² | - |
| 1788089730 | 26.67° C | 49% | 1014.7 hPa | 0 mm | - | 761 W/m² | - |
| 1788089130 | 26.11° C | 48% | 1014.8 hPa | 0 mm | - | 761 W/m² | - |
| 1788088303 | 26.11° C | 48% | 1015.1 hPa | 0 mm | - | 761 W/m² | - |
* Rain latest hour (hover to see other rain measurements)
** Current wind speed in m/s (hover to see current wind gust speed)